Location: Clunton
(52.4333°N, 2.9833°W)
Time: 14:04:57
(UTC+00:00)

Daily predictions for brighter satellites

Satellite Brightness Start Highest point End
(mag) Time Altitude Azimuth Time Altitude Azimuth Time Altitude Azimuth
Cosmos 2219 3.3 16:47:50 10° NNW 16:53:25 58° NE 16:58:57 10° SE
CZ-4B R/B 2.2 16:51:44 10° N 16:54:59 54° WNW 16:58:18 10° SSW
TELKOM 3 4.3 16:55:24 10° W 16:57:32 33° SSW 16:59:29 10° SE
H-2A R/B 4.4 16:54:58 10° N 16:58:13 21° WNW 17:01:26 10° WSW
Cosmos 2233 Rocket 4.1 16:53:01 10° N 16:59:17 56° ENE 17:05:27 10° SSE
Cosmos 2369 Rocket 3.1 16:54:05 10° WSW 16:59:29 47° NW 17:04:54 10° NNE
USA 215 3.4 16:54:34 10° E 17:01:00 62° N 17:07:25 10° WNW
CZ-4 R/B 2.8 16:59:32 10° ESE 17:02:21 18° ENE 17:05:10 10° NNE
Elektron 3 4.1 17:01:05 10° SW 17:04:27 54° SE 17:07:16 10° ENE
Cosmos 1743 Rocket 3.5 17:00:19 10° N 17:04:40 64° ENE 17:08:59 10° SSE
Cosmos 1805 Rocket 4.3 17:00:57 10° N 17:04:49 30° ENE 17:08:41 10° SE
Meteor 1-28 Rocket 4.4 17:06:16 10° N 17:09:48 42° WNW 17:13:19 10° SW
Envisat 3.5 17:06:18 10° SE 17:10:56 37° ENE 17:15:35 10° N
AQUARIUS 4.2 17:08:07 10° SSE 17:12:33 60° ENE 17:17:00 10° N
Cosmos 1455 2.4 17:09:28 10° SSW 17:13:13 74° W 17:17:00 10° N
Cosmos 2227 Rocket 2.3 17:08:50 10° NNW 17:14:25 54° NE 17:19:58 10° SE
Cosmos 2297 Rocket 2.3 17:09:08 10° NNW 17:14:45 58° NE 17:20:19 10° SE
YAOGAN 6 3.8 17:14:32 10° ESE 17:17:11 20° ENE 17:19:50 10° NNE
Cosmos 2344 3.7 17:11:06 10° SSW 17:18:32 72° SE 17:26:59 10° NE
Okean O Rocket 3.1 17:14:40 10° S 17:18:51 42° W 17:23:01 10° NNW
CORIOLIS 4.1 17:15:10 10° SSE 17:20:32 69° ENE 17:25:58 10° NNW
Cosmos 1464 Rocket 4.5 17:15:07 10° N 17:20:48 36° ENE 17:26:23 10° SE
IRS-1C Rocket 4.2 17:18:42 10° SSE 17:23:59 84° WSW 17:29:19 10° NNW
SeaSat 1 2.4 17:21:05 10° SE 17:26:00 75° NE 17:30:57 10° NNW
Cosmos 2123 Rocket 4.0 17:21:01 10° S 17:27:14 89° W 17:33:28 10° N
NOSS 5 (C) 4.5 17:25:05 10° SW 17:28:45 71° NW 17:31:23 13° NE
Cosmos 1500 Rocket 3.6 17:25:14 10° NNW 17:29:40 83° W 17:34:01 10° S
Meteor 2-10 Rocket 3.5 17:25:21 10° SSW 17:30:21 84° WNW 17:35:28 10° NNE
H-2A R/B 2.7 17:28:21 10° SSE 17:32:13 83° ENE 17:36:03 10° NNW
Cosmos 1943 Rocket 3.8 17:29:44 10° W 17:34:36 29° NW 17:39:31 10° NNE
Cosmos 1633 Rocket 3.9 17:31:10 10° N 17:35:00 28° ENE 17:38:50 10° SE
Geosat 4.5 17:30:57 10° NE 17:35:43 40° ESE 17:40:26 10° S
ASTEX 1 3.9 17:33:17 10° N 17:38:17 67° W 17:43:14 10° SSW
Cosmos 2263 Rocket 3.5 17:34:41 10° NNW 17:38:48 20° NNE 17:41:12 16° ENE
Genesis I 3.7 17:35:39 10° SSW 17:39:28 44° SE 17:42:05 18° ENE
Meteor 2-2 Rocket 4.4 17:34:16 10° S 17:39:58 54° E 17:45:34 10° NNE
Cosmos 2082 3.8 17:35:59 10° NNW 17:41:32 55° NE 17:47:03 10° SE
NOSS 7 (D) 4.0 17:40:11 10° SSW 17:43:03 57° SE 17:44:24 25° ENE
COSMO-SKYMED 1 3.4 17:39:18 10° NE 17:43:06 28° E 17:46:51 10° SSE
SMAP 3.5 17:39:52 10° S 17:44:30 67° WSW 17:49:10 10° NNW
Cosmos 1862 3.9 17:41:22 10° N 17:45:00 33° ENE 17:48:37 10° SE
Meteor 1-27 4.2 17:39:36 10° S 17:45:14 75° E 17:51:01 10° NNE
Cosmos 1666 Rocket 3.9 17:41:32 10° N 17:45:43 40° ENE 17:49:49 10° SE
Cosmos 1607 4.1 17:40:28 10° NW 17:46:41 78° SW 17:52:56 10° SSE
Sich 1 3.1 17:45:13 10° N 17:49:29 56° ENE 17:53:47 10° SSE
CENTAUR R/B 3.8 17:44:06 10° WNW 17:50:27 36° N 17:56:08 16° NE
Ariane Rocket 3.9 17:51:23 17° E 17:54:00 26° ENE 17:58:12 10° N
Cosmos 1238 Rocket 3.8 17:50:43 10° NNW 17:55:26 56° W 17:59:17 10° S
Cosmos 1697 Rocket 3.8 17:51:22 10° SSE 17:55:44 24° ESE 17:57:08 21° E
ATLAS 5 CENTAUR R/B 2.6 17:51:23 10° NW 17:56:59 71° SW 18:03:26 10° SSE
Cosmos 1867 3.5 17:52:23 10° SW 17:57:51 84° SE 18:02:11 17° NE
H-2A R/B 3.8 18:00:03 16° NE 18:00:03 16° NE 18:02:33 10° NNE
Cosmos 773 Rocket 3.9 17:59:04 10° SSW 18:04:13 75° ESE 18:09:20 11° NNE
ATLAS 3B R/B 3.7 18:01:32 10° WNW 18:07:23 31° N 18:11:27 18° NE
Cosmos 1624 Rocket 4.5 18:06:28 10° NNW 18:11:30 39° NE 18:13:48 27° ESE
Cosmos 2056 Rocket 4.0 18:06:45 10° NNW 18:11:32 37° NE 18:13:20 28° E
Cosmos 2278 Rocket 4.4 18:10:59 10° NNW 18:12:57 12° N 18:14:54 10° NNE
GEOS 3 Rocket 3.6 18:09:56 20° NE 18:13:35 81° SE 18:18:52 10° SW
Cosmos 1513 Rocket 4.5 18:08:01 10° N 18:14:29 77° ENE 18:20:52 10° SSE
Cosmos 1356 Rocket 3.3 18:10:31 10° S 18:14:39 68° E 18:18:43 11° NNE
YAOGAN 1 2.5 18:10:55 10° SSE 18:15:11 63° ENE 18:19:30 10° N
Cosmos 1470 Rocket 4.0 18:12:17 10° N 18:16:31 39° ENE 18:17:57 31° ESE
Cosmos 2221 3.5 18:12:49 10° SSW 18:17:00 47° WNW 18:21:14 10° N
Cosmos 2034 Rocket 4.0 18:10:51 10° N 18:17:10 62° ENE 18:23:28 10° SSE
CZ-3B R/B 2.5 18:17:09 10° W 18:19:27 60° N 18:19:34 59° N
COBE Rocket 3.9 18:14:34 10° N 18:19:28 80° WNW 18:24:11 10° SSW
Cosmos 1538 Rocket 3.9 18:16:08 10° SSW 18:21:23 79° ESE 18:25:50 15° NNE
Lacrosse 4 Rocket 2.5 18:18:24 10° S 18:21:00 25° SE 18:21:00 25° SE
CZ-4 R/B 4.4 18:18:05 10° SSE 18:22:13 85° WSW 18:26:25 10° NNW
Cosmos 1844 Rocket 4.4 18:19:38 10° NNW 18:22:52 15° NNE 18:23:31 15° NNE
USA 116 4.4 18:21:50 30° NE 18:23:43 46° E 18:28:25 10° S
Meteor 2-11 Rocket 4.3 18:18:52 10° N 18:24:59 68° ENE 18:31:05 10° SSE
Okean-O 3.9 18:21:05 10° S 18:25:19 44° W 18:29:35 10° NNW
Cosmos 1633 2.7 18:24:12 10° NNW 18:27:52 75° W 18:31:30 10° S
NOAA 11 4.1 18:22:45 10° SSE 18:28:04 60° ENE 18:33:26 10° N
Cosmos 1656 3.6 18:24:43 10° SSW 18:30:11 64° ESE 18:33:00 29° NE
SKYMED 2 3.4 18:27:28 12° NNE 18:31:28 77° ESE 18:35:48 10° S
CSL-04 Debris 4.1 18:27:49 10° SSE 18:33:20 90° WSW 18:38:52 10° NNW
Cosmos 1869 3.8 18:30:25 10° SSW 18:34:19 59° WNW 18:38:14 10° N
CZ-2D R/B 3.2 18:34:28 59° ENE 18:34:28 59° ENE 18:38:16 10° N
CZ-4 R/B 1.8 18:32:50 10° S 18:36:59 66° WSW 18:41:04 10° NNW
Cosmos 724 4.2 18:31:25 10° NW 18:37:20 85° NE 18:40:39 27° SE
Cosmos 1634 Rocket 4.2 18:33:26 10° N 18:39:21 43° ENE 18:40:42 38° ESE
Tsikada Rocket 4.1 18:36:25 10° SSE 18:42:30 50° E 18:48:40 10° NNE
USA 215 3.2 18:40:26 31° ESE 18:43:53 89° SSW 18:50:27 10° WNW
Cosmos 2369 Rocket 4.4 18:41:26 10° WNW 18:44:58 17° NNW 18:48:30 10° NNE
Cosmos 1816 Rocket 4.5 18:43:37 10° S 18:49:49 58° E 18:56:04 10° NNE
Envisat 4.4 18:45:11 10° SSW 18:49:56 40° W 18:54:44 10° NNW
YAOGAN 6 4.0 18:47:12 10° SSW 18:50:30 38° W 18:53:48 10° NNW
CSL-04 Rocket 3.9 18:47:04 10° S 18:52:24 67° WSW 18:57:42 10° NNW
Cosmos 1939 Rocket 2.8 18:52:15 78° SE 18:52:29 85° ENE 18:56:40 10° NNW
USA 229 DEB 3.6 18:49:04 10° SW 18:55:43 87° SE 18:58:48 36° NE
USA 229 3.6 18:49:11 10° SW 18:55:48 87° SE 18:58:52 37° NE
Cosmos 2227 Rocket 3.8 18:53:15 10° NW 18:58:17 33° WSW 19:03:16 10° S
Cosmos 2297 Rocket 4.0 18:53:37 10° NW 18:58:31 31° WSW 19:03:24 10° SSW
Cosmos 1980 Rocket 3.4 18:53:53 10° S 18:56:39 26° SSE 18:56:39 26° SSE
Cosmos 1452 Rocket 4.4 18:55:36 10° NNW 18:59:15 33° NNE 18:59:15 33° NNE
NOSS 3-1 (A) 3.3 18:55:15 10° SSW 19:00:50 64° SE 19:01:51 55° E
NOSS 3-1 (C) 3.3 18:56:00 10° SW 19:01:43 88° SE 19:03:50 45° NE
Cosmos 1371 Rocket 3.9 18:56:31 10° NNW 19:01:47 87° WSW 19:03:21 47° SSE
Cosmos 1633 Rocket 4.4 19:08:49 10° NNW 19:12:54 38° W 19:16:59 10° SSW
Cosmos 2369 3.6 19:12:08 10° SSW 19:17:49 87° ESE 19:18:22 74° NE
COSMO-SKYMED 1 3.8 19:16:01 14° N 19:19:22 40° WNW 19:23:25 10° SW
Cosmos 2263 Rocket 2.4 19:18:15 10° NNW 19:22:54 57° N 19:22:54 57° N
Cosmos 1680 Rocket 3.7 19:21:38 10° SSW 19:26:04 65° SW 19:26:04 65° SW
Ariane Rocket 3.4 19:31:36 49° SSW 19:32:39 60° WSW 19:37:43 10° NNW
Cosmos 2344 4.4 19:26:13 10° W 19:33:38 49° NNW 19:37:43 30° NE
Cosmos 2278 4.0 19:32:14 10° SSW 19:36:48 60° SSW 19:36:48 60° SSW
H-2A R/B 3.4 19:40:41 30° N 19:40:41 30° N 19:43:21 10° N
Cosmos 1697 Rocket 2.8 19:33:31 10° SW 19:38:55 72° W 19:38:55 72° W
CENTAUR R/B 3.5 19:35:50 10° NW 19:42:55 45° NNE 19:43:18 45° NNE
USA 238 DEB 3.9 19:38:39 10° NW 19:45:20 60° NNE 19:45:20 60° NNE
USA 238 3.9 19:38:45 10° NW 19:45:26 60° NNE 19:45:26 60° NNE
NOSS 3-2 (A) 4.0 19:45:54 10° NW 19:52:33 60° NNE 19:52:33 60° NNE
Cosmos 2278 Rocket 4.4 19:55:42 10° NNW 19:57:25 15° N 19:57:25 15° N
ATLAS 3B R/B 3.5 19:53:29 10° NW 19:58:41 38° N 19:58:41 38° N
Lacrosse 4 Rocket 4.0 19:56:31 10° WSW 19:57:22 15° WSW 19:57:22 15° WSW
USA 215 4.2 20:27:48 38° SW 20:27:48 38° SW 20:33:26 10° WNW
CENTAUR R/B 4.3 21:26:42 10° NW 21:30:29 34° NW 21:30:29 34° NW
